Montevideo, MN

1:44 AM CST on February 23, 2017 (GMT -0600)
Montevideo-Chippewa County

Weather History for KMVE - December, 2012

Change the Weather History Date:

Sunday, December 2, 2012

  Actual Average Record
Temperature  
Mean Temperature 39 °F -  
Max Temperature 57 °F 30 °F 59 °F (1982)
Min Temperature 21 °F 12 °F -10 °F (1976)
Degree Days  
Heating Degree Days 26    
Moisture  
Dew Point 33 °F    
Average Humidity 78    
Maximum Humidity 100    
Minimum Humidity 51    
Precipitation  
Precipitation 0.00 in - - ()
Sea Level Pressure  
Sea Level Pressure 29.83 in    
Wind  
Wind Speed 6 mph (SSW)    
Max Wind Speed 18 mph    
Max Gust Speed 26 mph    
Visibility 7 miles    
Events      
Averages and records for this station are not official NWS values.
T = Trace of Precipitation, MM = Missing Value Source: NWS Daily Summary

Daily Weather History Graph

Daily Weather History Graph

Search for Another Location

Airport or City:

Trip Planner

Search our weather history database for the weather conditions in past years. The results will help you decide how hot, cold, wet, or windy it might be!

Date:

Astronomy

Dec. 02, 2012 Rise Set
Actual Time 7:42 AM CST 4:42 PM CST
Civil Twilight 7:09 AM CST 5:15 PM CST
Nautical Twilight 6:32 AM CST 5:52 PM CST
Astronomical Twilight 5:57 AM CST 6:27 PM CST
Moon 8:35 PM CST (12/2) 10:28 AM CST (12/2)
Length of Visible Light 10h 06m
Length of Day
8h 59m
Waning Gibbous, 85% of the Moon is Illuminated
Dec 2
Waning Gibbous
Dec 6
Last Quarter
Dec 13
New
Dec 19
First Quarter
Dec 28
Full

Hourly Weather History & Observations

Time (CST) Temp. Windchill Dew Point Humidity Pressure Visibility Wind Dir Wind Speed Gust Speed Precip Events Conditions
12:14 AM 32.0 °F 28.7 °F 28.4 °F 87% 29.90 in 7.0 mi NW 3.5 mph - N/A   Clear
12:34 AM 30.2 °F 25.4 °F 28.4 °F 93% 29.91 in 7.0 mi NW 4.6 mph - N/A   Clear
12:54 AM 30.2 °F 25.4 °F 28.4 °F 93% 29.91 in 5.0 mi NW 4.6 mph - N/A   Clear
1:14 AM 30.2 °F 25.4 °F 28.4 °F 93% 29.91 in 5.0 mi NNW 4.6 mph - N/A   Clear
1:34 AM 28.4 °F 22.2 °F 28.4 °F 100% 29.91 in 5.0 mi NW 5.8 mph - N/A   Clear
1:54 AM 28.4 °F 24.6 °F 28.4 °F 100% 29.91 in 5.0 mi NW 3.5 mph - N/A   Clear
2:14 AM 28.4 °F 24.6 °F 26.6 °F 93% 29.91 in 5.0 mi NW 3.5 mph - N/A   Clear
2:34 AM 28.4 °F 24.6 °F 26.6 °F 93% 29.92 in 4.0 mi WNW 3.5 mph - N/A   Clear
2:54 AM 28.4 °F 24.6 °F 26.6 °F 93% 29.93 in 4.0 mi WNW 3.5 mph - N/A   Clear
3:14 AM 26.6 °F - 26.6 °F 100% 29.92 in 5.0 mi Calm Calm - N/A   Clear
3:34 AM 26.6 °F 20.0 °F 26.6 °F 100% 29.93 in 4.0 mi NW 5.8 mph - N/A   Clear
3:54 AM 26.6 °F - 26.6 °F 100% 29.92 in 4.0 mi Calm Calm - N/A   Clear
4:14 AM 26.6 °F - 26.6 °F 100% 29.92 in 4.0 mi Calm Calm - N/A   Clear
4:34 AM 26.6 °F - 26.6 °F 100% 29.93 in 4.0 mi Calm Calm - N/A   Clear
4:54 AM 24.8 °F - 24.8 °F 100% 29.93 in 4.0 mi Calm Calm - N/A   Clear
5:14 AM 26.6 °F - 26.6 °F 100% 29.92 in 4.0 mi Calm Calm - N/A   Clear
5:34 AM 24.8 °F - 23.0 °F 93% 29.93 in 4.0 mi Calm Calm - N/A   Clear
5:54 AM 23.0 °F - 23.0 °F 100% 29.93 in 4.0 mi Calm Calm - N/A   Clear
6:14 AM 21.2 °F - 21.2 °F 100% 29.93 in 3.0 mi Calm Calm - N/A   Clear
6:34 AM 21.2 °F - 21.2 °F 100% 29.94 in 4.0 mi Calm Calm - N/A   Clear
6:54 AM 21.2 °F 16.4 °F 21.2 °F 100% 29.95 in 4.0 mi SW 3.5 mph - N/A   Clear
7:14 AM 23.0 °F 18.4 °F 21.2 °F 93% 29.95 in 4.0 mi SW 3.5 mph - N/A   Clear
7:34 AM 24.8 °F - 24.8 °F 100% 29.95 in 4.0 mi Calm Calm - N/A   Clear
7:54 AM 21.2 °F 16.4 °F 21.2 °F 100% 29.94 in 4.0 mi SE 3.5 mph - N/A   Clear
8:14 AM 23.0 °F 17.0 °F 23.0 °F 100% 29.94 in 2.5 mi ESE 4.6 mph - N/A   Clear
8:34 AM 24.8 °F 17.9 °F 23.0 °F 93% 29.94 in 2.5 mi SSE 5.8 mph - N/A   Clear
8:54 AM 26.6 °F 20.0 °F 26.6 °F 100% 29.94 in 3.0 mi South 5.8 mph - N/A   Clear
9:14 AM 28.4 °F 22.2 °F 28.4 °F 100% 29.94 in 4.0 mi SSE 5.8 mph - N/A   Clear
9:34 AM 30.2 °F 24.3 °F 28.4 °F 93% 29.95 in 4.0 mi South 5.8 mph - N/A   Clear
9:54 AM 32.0 °F 25.6 °F 30.2 °F 93% 29.94 in 4.0 mi SSW 6.9 mph - N/A   Clear
10:14 AM 33.8 °F 27.0 °F 30.2 °F 87% 29.94 in 5.0 mi South 8.1 mph - N/A   Clear
10:34 AM 35.6 °F 28.0 °F 32.0 °F 87% 29.93 in 5.0 mi South 10.4 mph - N/A   Clear
10:54 AM 37.4 °F 30.3 °F 32.0 °F 81% 29.92 in 5.0 mi South 10.4 mph - N/A   Haze
11:15 AM 41.0 °F 35.2 °F 33.8 °F 76% 29.91 in 7.0 mi South 9.2 mph - N/A   Clear
11:34 AM 42.8 °F 37.0 °F 33.8 °F 70% 29.91 in 7.0 mi South 10.4 mph - N/A   Clear
11:54 AM 44.6 °F 38.8 °F 35.6 °F 71% 29.89 in 7.0 mi South 11.5 mph - N/A   Clear
12:15 PM 48.2 °F - 35.6 °F 62% 29.87 in 10.0 mi South 10.4 mph - N/A   Clear
12:34 PM 50.0 °F - 37.4 °F 62% 29.84 in 10.0 mi South 10.4 mph - N/A   Clear
12:54 PM 51.8 °F - 37.4 °F 58% 29.81 in 10.0 mi South 11.5 mph - N/A   Clear
1:15 PM 53.6 °F - 37.4 °F 54% 29.80 in 10.0 mi South 11.5 mph - N/A   Clear
1:34 PM 53.6 °F - 37.4 °F 54% 29.81 in 10.0 mi South 11.5 mph 16.1 mph N/A   Clear
1:54 PM 53.6 °F - 37.4 °F 54% 29.82 in 10.0 mi South 10.4 mph - N/A   Clear
2:15 PM 55.4 °F - 39.2 °F 54% 29.81 in 10.0 mi SSW 9.2 mph - N/A   Clear
2:34 PM 57.2 °F - 39.2 °F 51% 29.80 in 10.0 mi South 9.2 mph - N/A   Clear
2:54 PM 57.2 °F - 39.2 °F 51% 29.80 in 10.0 mi SSW 9.2 mph - N/A   Clear
3:14 PM 57.2 °F - 39.2 °F 51% 29.79 in 10.0 mi South 9.2 mph 17.3 mph N/A   Clear
3:34 PM 57.2 °F - 39.2 °F 51% 29.77 in 10.0 mi South 11.5 mph 16.1 mph N/A   Clear
3:54 PM 55.4 °F - 39.2 °F 54% 29.76 in 10.0 mi South 12.7 mph 18.4 mph N/A   Clear
4:14 PM 55.4 °F - 39.2 °F 54% 29.75 in 10.0 mi South 12.7 mph - N/A   Clear
4:34 PM 55.4 °F - 39.2 °F 54% 29.75 in 10.0 mi South 13.8 mph 19.6 mph N/A   Clear
4:54 PM 55.4 °F - 39.2 °F 54% 29.75 in 10.0 mi South 12.7 mph 17.3 mph N/A   Clear
5:14 PM 53.6 °F - 39.2 °F 58% 29.74 in 10.0 mi South 11.5 mph - N/A   Clear
5:34 PM 53.6 °F - 39.2 °F 58% 29.73 in 10.0 mi South 12.7 mph 18.4 mph N/A   Clear
5:54 PM 53.6 °F - 39.2 °F 58% 29.72 in 10.0 mi South 15.0 mph 19.6 mph N/A   Clear
6:14 PM 53.6 °F - 39.2 °F 58% 29.73 in 10.0 mi South 15.0 mph 21.9 mph N/A   Clear
6:34 PM 51.8 °F - 39.2 °F 62% 29.73 in 10.0 mi South 13.8 mph - N/A   Clear
6:55 PM 51.8 °F - 39.2 °F 62% 29.72 in 10.0 mi South 13.8 mph 19.6 mph N/A   Clear
7:14 PM 50.0 °F - 39.2 °F 66% 29.71 in 10.0 mi South 13.8 mph 20.7 mph N/A   Clear
7:34 PM 48.2 °F - 39.2 °F 71% 29.71 in 10.0 mi South 15.0 mph 21.9 mph N/A   Clear
7:55 PM 48.2 °F - 39.2 °F 71% 29.70 in 10.0 mi South 15.0 mph 20.7 mph N/A   Clear
8:14 PM 48.2 °F - 39.2 °F 71% 29.69 in 10.0 mi SSW 12.7 mph 20.7 mph N/A   Clear
8:34 PM 48.2 °F - 39.2 °F 71% 29.69 in 10.0 mi SSW 10.4 mph 18.4 mph N/A   Clear
8:55 PM 48.2 °F - 39.2 °F 71% 29.68 in 10.0 mi SSW 13.8 mph 21.9 mph N/A   Clear
9:14 PM 48.2 °F - 39.2 °F 71% 29.68 in 10.0 mi South 15.0 mph 21.9 mph N/A   Clear
9:34 PM 48.2 °F - 39.2 °F 71% 29.66 in 10.0 mi SSW 15.0 mph 21.9 mph N/A   Clear
9:55 PM 48.2 °F - 39.2 °F 71% 29.65 in 10.0 mi South 18.4 mph 26.5 mph N/A   Clear
10:14 PM 48.2 °F - 39.2 °F 71% 29.65 in 10.0 mi SSW 16.1 mph 24.2 mph N/A   Clear
10:34 PM 48.2 °F - 39.2 °F 71% 29.64 in 10.0 mi SSW 15.0 mph 23.0 mph N/A   Clear
10:55 PM 48.2 °F - 39.2 °F 71% 29.64 in 10.0 mi SSW 13.8 mph 19.6 mph N/A   Clear
11:14 PM 46.4 °F 40.4 °F 39.2 °F 76% 29.63 in 10.0 mi South 13.8 mph 19.6 mph N/A   Clear
11:34 PM 46.4 °F 41.5 °F 39.2 °F 76% 29.64 in 10.0 mi SSW 10.4 mph - N/A   Clear
11:55 PM 48.2 °F - 39.2 °F 71% 29.63 in 10.0 mi SSW 10.4 mph 16.1 mph N/A   Clear